Location: Dominguez Junction
(33.8634°N, 118.2179°W)
Time: 18:06:11
(UTC+00:00)

ADEOS - Pass Details

Date: 29 October 2020
Orbit: 793 x 793 km, 98.9° (Epoch: 24 November)

Event Time Altitude Azimuth Distance (km) Brightness Sun altitude
Rises 12:42:09 0° 7° (N) 3,299 6.8 -18.8°
Reaches altitude 10° 12:44:31 10° 4° (N) 2,366 6.0 -18.3°
Maximum altitude 12:49:37 57° 287° (WNW) 933 3.6 -17.2°
Drops below altitude 10° 12:54:42 10° 209° (SSW) 2,352 5.8 -16.2°
Sets 12:57:02 0° 206° (SSW) 3,278 6.6 -15.7°
